Location: Dehesa de la Cepeda
(40.6574°N, 4.3013°W)
Time: 07:51:55
(UTC+00:00)

Envisat - Visible Passes

Search period start: 18 September 2020 00:00
Search period end: 28 September 2020 00:00
Orbit: 764 x 766 km, 98.1° (Epoch: 18 September)

Date Brightness Start Highest point End Pass type
(mag) Time Alt. Az. Time Alt. Az. Time Alt. Az.
18 Sep 6.6 19:08:43 10° WSW 19:10:11 11° W 19:11:39 10° WNW visible
20 Sep 6.4 05:00:20 10° ENE 05:02:26 12° E 05:04:30 10° ESE visible
21 Sep 6.3 18:55:55 10° WSW 18:58:41 15° W 19:01:28 10° WNW visible
22 Sep 5.9 05:24:11 10° NE 05:28:08 22° E 05:32:03 10° SE visible
24 Sep 6.1 18:43:42 10° SW 18:47:13 19° W 18:50:45 10° NW visible
25 Sep 6.1 05:13:18 10° NE 05:16:41 18° E 05:20:01 10° SE visible
27 Sep 5.3 05:37:50 10° NE 05:42:19 31° E 05:46:47 10° SSE visible
27 Sep 5.8 18:31:43 10° SSW 18:35:45 24° W 18:39:49 10° NW visible
